Weather History for Juliana Airport, St. Martin

Change the Weather History Date:

Tuesday, July 2, 2013

  Actual Average Record
Temperature  
Mean Temperature 81 °F -  
Max Temperature 86 °F 86 °F 91 °F (2005)
Min Temperature 76 °F 77 °F 75 °F (2002)
Cooling Degree Days 16    
Growing Degree Days 31 (Base 50)    
Moisture  
Dew Point 72 °F    
Average Humidity 70    
Maximum Humidity 83    
Minimum Humidity 56    
Precipitation  
Precipitation 0.08 in 0.10 in - ()
Sea Level Pressure  
Sea Level Pressure 30.06 in    
Wind  
Wind Speed 12 mph ()    
Max Wind Speed 18 mph    
Max Gust Speed 32 mph    
Visibility 9.1 miles    
Events Rain    
Averages and records for this station are not official NWS values.
T = Trace of Precipitation, MM = Missing Value Source: Averaged Metar Reports

Daily Weather History Graph

Daily Weather History Graph

Search for Another Location

Airport:

Trip Planner

Search our weather history database for the weather conditions in past years. The results will help you decide how hot, cold, wet, or windy it might be!

Date:

Astronomy

Jul. 02, 2013 Rise Set
Actual Time 5:40 AM AST 6:52 PM AST
Civil Twilight 5:16 AM AST 7:16 PM AST
Nautical Twilight 4:48 AM AST 7:44 PM AST
Astronomical Twilight 4:18 AM AST 8:14 PM AST
Moon 1:17 AM AST 2:20 PM AST
Length of Visible Light 13h 59m
Length of Day
13h 11m
Waning Crescent, 26% of the Moon is Illuminated
Jul 2
Waning Crescent
Jul 8
New
Jul 15
First Quarter
Jul 22
Full
Jul 29
Last Quarter

Hourly Weather History & Observations

Time (AST) Temp. Heat Index Dew Point Humidity Pressure Visibility Wind Dir Wind Speed Gust Speed Precip Events Conditions
12:00 AM 80.6 °F 85.4 °F 73.4 °F 79% 30.06 in 6.2 mi East 10.4 mph - N/A   Scattered Clouds
1:00 AM 80.6 °F 85.4 °F 73.4 °F 79% 30.04 in 6.2 mi ENE 11.5 mph - N/A   Scattered Clouds
2:00 AM 80 °F - 73 °F 73% 30.04 in 19 mi ENE 10.4 mph - -   Partly Cloudy
2:00 AM 80.6 °F 85.4 °F 73.4 °F 79% 30.04 in - ENE 10.4 mph - N/A   Scattered Clouds
3:00 AM 80.6 °F 84.6 °F 71.6 °F 74% 30.04 in 6.2 mi East 12.7 mph - N/A   Partly Cloudy
4:00 AM 80.6 °F 84.6 °F 71.6 °F 74% 30.04 in 6.2 mi ENE 12.7 mph - N/A   Partly Cloudy
5:00 AM 79 °F - 73 °F 76% 30.06 in 19 mi ENE 11.5 mph - - Rain Light Rain Showers
5:00 AM 78.8 °F - 73.4 °F 83% 30.04 in 6.2 mi ENE 11.5 mph - N/A   Scattered Clouds
6:00 AM 78.8 °F - 71.6 °F 78% 30.06 in 6.2 mi ENE 11.5 mph - N/A   Scattered Clouds
7:00 AM 80.6 °F 84.6 °F 71.6 °F 74% 30.09 in 6.2 mi ENE 15.0 mph - N/A   Scattered Clouds
8:00 AM 82 °F - 72 °F 66% 30.10 in 16 mi ENE 16.1 mph - -   Scattered Clouds
8:00 AM 82.4 °F 87.2 °F 71.6 °F 70% 30.09 in 6.2 mi ENE 16.1 mph - N/A   Partly Cloudy
9:00 AM 84.2 °F 89.6 °F 71.6 °F 66% 30.09 in 6.2 mi East 15.0 mph - N/A   Scattered Clouds
10:00 AM 84.2 °F 89.6 °F 71.6 °F 66% 30.09 in 6.2 mi ENE 13.8 mph - N/A   Scattered Clouds
11:00 AM 84 °F - 71 °F 56% 30.12 in 11 mi East 12.7 mph - -   Mostly Cloudy
11:00 AM 84.2 °F 89.6 °F 71.6 °F 66% 30.09 in 6.2 mi East 13.8 mph - N/A   Scattered Clouds
12:00 PM 86.0 °F 90.4 °F 69.8 °F 58% 30.09 in 6.2 mi East 16.1 mph - N/A   Scattered Clouds
1:00 PM 80.6 °F 83.9 °F 69.8 °F 70% 30.06 in 6.2 mi East 15.0 mph - N/A   Scattered Clouds
2:00 PM 84 °F - 72 °F 60% 30.06 in 19 mi East 16.1 mph - -   Partly Cloudy
2:00 PM 84.2 °F 89.6 °F 71.6 °F 66% 30.04 in 6.2 mi East 16.1 mph - N/A   Scattered Clouds
3:00 PM 84.2 °F 90.9 °F 73.4 °F 70% 30.04 in 6.2 mi East 16.1 mph 32.2 mph N/A   Scattered Clouds
4:00 PM 86.0 °F 91.8 °F 71.6 °F 62% 30.01 in 6.2 mi ENE 18.4 mph - N/A   Scattered Clouds
5:00 PM 84 °F - 72 °F 59% 30.03 in 19 mi East 15.0 mph - -  
5:00 PM 84.2 °F 89.6 °F 71.6 °F 66% 30.01 in 6.2 mi East 15.0 mph - N/A   Scattered Clouds
6:00 PM 82.4 °F 87.2 °F 71.6 °F 70% 30.01 in 6.2 mi East 18.4 mph - N/A   Scattered Clouds
7:00 PM 78.8 °F - 71.6 °F 78% 30.04 in 6.2 mi East 12.7 mph - N/A   Partly Cloudy
8:00 PM 80 °F - 72 °F 69% 30.06 in 19 mi East 17.3 mph - -   Partly Cloudy
8:00 PM 80.6 °F 84.6 °F 71.6 °F 74% 30.04 in 6.2 mi East 15.0 mph - N/A   Partly Cloudy
9:00 PM 80.6 °F 84.6 °F 71.6 °F 74% 30.06 in 6.2 mi East 16.1 mph - N/A   Partly Cloudy
10:00 PM 80.6 °F 83.9 °F 69.8 °F 70% 30.06 in 6.2 mi East 15.0 mph - N/A   Partly Cloudy
11:00 PM 80 °F - 71 °F 68% 30.08 in 19 mi East 12.7 mph - - Rain Light Rain Showers
11:00 PM 78.8 °F - 71.6 °F 78% 30.06 in 6.2 mi East 12.7 mph - N/A   Scattered Clouds